Theta_e
346 344 344 343 344 345 345 345 343 342 342 343 343 343 344 346 345 343 342 342 342 341 341 343 344 342 344 346 346 346 343 341 344 345 345 345 345 345 345 346 346 346 345 345 344 343 343 344 345 343 343 343 342 342 342 343 343 343 344 345 345 345 345 344 344 344 344 345 344 344 344 343 343 343 343 343 343 343 342 340 337 333 333 336 340
347 345 344 343 345 345 344 345 343 342 341 342 342 343 344 345 345 343 342 342 342 341 342 343 343 344 346 345 345 346 342 339 343 345 346 346 345 345 346 345 346 345 344 344 343 344 345 345 344 343 343 343 342 342 343 343 344 345 344 345 345 345 345 344 344 344 344 344 343 343 343 343 342 343 342 342 342 343 344 345 343 338 332 329 333
347 345 344 343 345 345 344 345 343 342 341 342 343 342 343 343 343 342 342 342 341 340 342 343 342 344 345 343 343 341 336 337 343 346 345 346 346 346 346 345 345 344 343 343 344 344 345 344 343 342 342 342 342 343 343 343 344 345 345 345 345 345 345 344 344 344 343 342 341 341 341 341 341 341 341 341 341 342 343 344 345 343 341 337 333
347 346 345 344 344 345 346 345 343 343 344 344 344 343 342 342 342 341 342 341 339 340 342 342 343 343 341 340 338 333 332 338 344 346 345 345 346 346 346 345 344 344 343 343 343 344 343 343 342 342 342 342 342 343 343 343 344 344 345 345 345 345 345 344 342 341 340 339 340 339 338 337 336 338 339 340 340 341 341 342 343 343 343 343 342
347 345 344 345 345 345 346 346 345 346 346 345 344 343 343 342 342 341 341 341 339 341 342 341 343 341 337 337 337 335 335 340 344 345 346 346 346 346 345 345 344 344 343 343 343 342 342 342 342 342 342 342 342 342 342 342 343 343 344 344 344 343 342 341 338 337 337 339 342 342 340 338 336 336 337 338 338 340 341 342 342 342 342 342 343
345 344 345 345 346 345 343 344 344 345 345 344 343 343 342 342 342 340 340 340 341 343 343 341 342 340 338 338 339 340 340 341 344 345 346 347 346 345 345 345 344 344 343 343 342 342 341 341 341 341 342 342 342 342 341 342 343 342 343 343 342 341 339 337 335 335 337 343 345 344 343 341 340 337 336 337 336 337 337 338 339 339 339 340 342
343 345 347 346 346 345 342 342 342 344 343 342 342 341 340 341 340 340 339 339 343 344 343 342 342 341 340 340 342 343 342 343 344 345 345 346 346 345 346 345 344 344 343 343 343 341 341 340 341 341 342 342 342 342 341 340 341 342 342 342 341 339 337 335 335 337 342 346 345 346 346 343 341 339 337 338 337 337 336 335 336 337 338 339 341
344 345 347 346 345 344 342 342 343 343 342 342 342 340 339 339 339 339 338 337 342 343 343 343 341 342 341 340 342 343 344 344 345 346 346 346 346 345 345 345 344 344 343 343 343 341 340 340 341 341 341 342 342 342 341 340 338 339 340 340 339 338 337 336 337 341 344 345 344 345 346 343 343 340 338 339 339 339 338 336 336 337 338 339 341
347 346 346 344 342 342 343 343 342 342 341 342 342 341 339 339 340 340 339 339 342 343 344 343 341 343 342 341 341 342 343 344 345 346 345 345 346 345 344 344 344 344 343 343 343 341 341 340 340 341 341 342 342 341 341 339 334 333 335 336 337 337 338 338 339 342 343 343 342 344 346 345 344 340 338 338 339 340 341 341 341 339 339 339 342
348 346 346 343 339 341 343 342 341 341 341 341 342 341 340 341 341 340 340 341 342 343 344 344 345 345 343 342 341 341 342 344 345 346 345 345 345 344 343 344 343 342 343 343 342 342 341 341 341 341 341 341 341 340 340 338 333 330 331 332 334 335 337 338 340 342 341 339 339 341 344 346 345 341 339 339 339 341 342 344 343 341 340 340 341
348 347 346 343 340 342 343 342 341 341 340 340 341 341 342 342 341 341 341 342 342 343 346 347 348 347 343 342 342 341 342 343 344 345 345 345 345 344 343 343 343 342 342 342 342 342 342 341 341 341 341 341 341 340 340 338 334 330 329 329 329 331 334 337 341 340 337 337 338 342 343 345 345 341 340 340 341 341 342 342 341 341 340 340 340
349 347 345 342 342 343 343 342 341 342 341 340 340 341 342 342 341 341 343 343 342 344 347 346 345 344 342 341 342 342 342 343 343 344 344 344 344 344 342 343 343 343 343 342 342 342 342 342 341 341 342 341 341 341 340 339 333 327 326 326 326 329 331 336 341 337 335 338 342 346 346 346 343 340 340 339 338 339 340 340 340 340 340 341 341
350 348 343 342 343 342 340 340 340 341 341 341 341 342 343 342 342 343 345 344 343 345 346 345 343 342 342 342 342 342 342 343 343 343 343 343 343 344 343 343 344 344 343 343 343 344 344 343 342 341 342 341 341 341 341 340 333 325 324 325 326 327 328 333 338 336 336 340 344 347 346 345 342 339 340 337 334 334 335 337 336 337 339 340 340
350 348 344 343 342 340 339 341 341 342 342 342 342 343 343 344 344 344 345 345 345 346 345 345 343 342 342 342 343 342 343 343 343 343 343 342 343 344 344 344 344 344 344 343 344 344 344 345 344 342 342 341 341 341 342 341 333 326 325 325 325 325 329 334 335 336 336 338 343 344 342 341 337 334 334 332 332 332 330 331 331 333 334 334 332
348 347 345 344 341 340 342 343 343 343 343 343 343 343 344 345 345 344 344 345 345 345 345 344 342 342 342 342 342 342 343 343 343 343 343 343 343 344 344 344 344 344 344 344 344 344 344 345 345 343 343 342 341 341 341 338 332 327 326 325 326 325 331 338 338 337 335 335 340 342 340 333 327 327 327 328 332 333 329 328 326 325 326 325 324
346 345 346 347 343 343 344 344 343 343 343 344 343 343 345 345 344 345 344 344 343 343 343 343 342 342 342 342 342 342 343 343 342 343 344 343 343 344 344 345 344 345 345 344 344 344 344 344 344 343 343 342 341 341 338 335 332 330 328 325 327 324 327 338 341 340 338 337 340 342 338 326 323 325 325 327 332 334 331 330 326 322 320 320 320
344 345 347 347 345 345 343 342 342 342 343 343 342 342 343 344 344 344 343 343 343 342 342 343 342 342 343 343 343 343 343 342 342 343 343 342 343 344 344 345 344 344 345 343 342 342 343 344 344 343 342 342 341 339 336 334 333 333 331 326 326 325 325 336 342 342 338 336 338 342 338 326 323 325 324 325 329 330 330 331 330 326 323 322 322
343 346 346 345 344 343 342 341 342 342 342 341 342 342 342 343 343 341 342 344 343 341 343 342 342 342 342 342 342 343 343 343 342 343 343 342 344 344 344 344 344 344 344 341 340 339 340 342 343 342 341 340 339 337 336 336 335 335 333 328 325 324 326 337 343 340 335 335 340 342 336 325 323 324 323 323 324 325 325 326 327 327 327 326 326
344 346 345 345 343 341 342 341 342 344 343 343 344 343 344 344 341 340 343 344 342 342 343 342 342 341 342 342 343 343 343 343 342 343 343 343 343 343 342 342 344 344 341 337 335 334 336 339 340 340 340 339 337 336 336 337 336 335 333 330 328 329 333 341 343 341 340 339 342 341 329 322 323 322 322 322 323 323 323 323 323 325 326 327 327
344 345 346 346 344 342 341 341 343 343 343 344 345 344 345 345 341 341 343 342 342 342 342 342 342 342 342 342 343 343 343 343 343 344 343 342 341 342 342 343 345 342 335 330 330 330 331 335 337 338 340 338 337 337 338 338 337 334 333 334 335 338 340 341 341 344 344 337 340 338 323 322 323 322 323 323 323 323 323 324 324 325 325 327 327
344 345 345 345 344 342 341 342 343 342 342 343 344 345 345 344 342 343 343 342 343 343 342 342 342 343 343 343 343 342 343 343 344 344 342 342 341 342 342 343 344 336 328 326 327 328 330 333 336 339 340 338 337 339 339 337 336 334 335 337 340 344 341 340 343 345 344 337 338 333 320 323 323 322 324 323 324 324 325 325 325 326 327 328 329
345 346 344 344 344 343 342 343 343 343 343 343 344 347 346 344 344 344 343 342 343 342 343 343 343 343 344 344 343 341 342 342 343 343 342 342 342 342 342 343 339 329 326 326 327 330 333 336 338 340 339 338 339 342 341 337 334 333 336 339 343 346 339 340 345 345 344 340 337 327 320 324 322 324 325 324 326 325 326 326 327 329 330 331 332
347 347 345 344 344 344 344 344 344 342 342 343 344 346 346 345 345 344 343 344 344 343 343 343 343 343 344 344 342 341 341 341 342 342 342 342 342 343 341 339 333 327 328 328 330 335 337 338 340 340 339 339 341 344 345 342 338 337 340 342 345 345 340 342 346 346 343 337 333 324 321 325 324 326 326 326 328 327 329 329 330 332 333 334 335
347 348 346 343 344 345 345 345 345 343 342 344 344 345 345 345 346 345 344 344 343 342 343 343 343 344 344 343 341 340 340 341 342 342 343 342 341 340 337 335 332 330 331 331 334 337 338 339 340 340 341 342 344 345 345 345 344 344 345 345 345 345 345 346 346 346 341 330 328 325 323 326 326 327 327 328 329 330 332 332 333 334 334 335 335
347 347 346 343 344 345 345 345 345 344 344 344 344 344 344 344 345 345 344 345 345 345 344 343 343 344 345 345 342 339 340 342 342 342 342 341 340 338 337 337 335 332 333 336 338 339 341 342 342 343 343 344 345 345 345 345 346 346 346 345 346 347 347 346 344 345 340 328 324 325 326 327 327 328 329 330 331 332 333 333 334 334 334 335 336
346 346 346 344 343 343 344 345 346 345 344 345 345 344 344 344 344 344 345 347 347 347 348 346 345 345 346 347 346 342 339 340 342 342 341 341 340 341 342 341 336 333 337 340 340 342 344 344 344 345 344 344 344 344 344 346 346 346 345 346 346 347 346 346 344 343 338 329 326 327 327 328 328 329 330 331 332 332 333 333 333 333 334 335 336
346 346 346 344 342 343 344 345 346 345 343 344 344 344 344 344 344 344 345 345 347 347 348 348 347 346 347 348 349 348 344 342 344 344 342 342 342 343 343 339 338 338 342 342 342 344 345 345 346 345 345 345 345 345 346 346 347 347 346 345 346 346 345 345 344 342 336 328 327 328 328 329 330 330 331 332 332 332 332 332 332 333 334 335 336
347 346 345 344 343 343 343 345 346 346 344 343 344 344 344 344 344 344 344 344 345 347 346 346 346 347 347 347 349 350 348 347 346 343 342 343 342 342 341 340 342 342 343 345 344 345 346 346 346 346 346 347 346 347 347 346 346 347 346 344 345 344 344 345 342 342 340 332 328 328 329 329 330 331 331 331 332 332 332 331 332 333 334 335 336
348 346 345 346 346 343 343 345 345 346 345 345 344 344 344 344 343 343 344 344 344 345 344 344 346 348 346 344 347 348 347 346 344 341 341 341 339 339 340 342 344 345 346 346 346 346 346 346 346 346 347 348 348 347 348 347 345 345 345 344 344 343 343 344 341 340 339 334 331 329 328 329 329 331 331 331 332 331 331 331 332 334 335 337 338
348 347 346 347 345 343 345 346 344 345 346 345 345 345 344 344 344 342 343 344 344 343 343 344 347 348 344 341 344 346 346 345 342 340 340 338 336 337 340 343 344 347 348 346 346 347 347 347 347 347 348 349 349 348 348 348 345 344 344 344 343 342 341 341 340 338 338 335 332 329 327 329 330 331 331 331 331 330 331 332 333 335 337 339 340
349 349 348 347 345 344 346 346 343 345 345 344 345 346 346 345 344 343 343 342 342 342 344 346 346 346 343 340 342 343 345 345 340 339 338 337 336 336 342 346 346 347 347 347 347 347 347 347 347 347 348 350 349 348 349 347 346 344 344 343 342 342 341 341 340 339 339 336 331 328 327 329 330 331 331 330 330 330 331 333 335 337 339 340 341
349 349 348 346 345 346 346 345 344 345 345 342 343 346 346 346 345 345 343 341 341 342 344 345 344 344 341 341 341 341 343 342 339 338 337 338 339 340 345 348 348 346 347 347 346 345 347 346 344 344 347 350 350 348 348 346 345 344 343 343 342 342 341 341 340 338 339 333 329 329 328 328 331 329 329 329 329 330 332 334 337 338 340 340 341
349 349 348 346 347 347 345 345 344 345 344 341 342 345 346 346 346 345 343 343 343 344 345 344 343 342 341 341 340 340 341 340 339 337 338 340 341 344 347 348 348 347 346 344 343 345 347 347 345 347 349 350 349 347 347 345 343 344 343 342 342 342 342 341 340 339 340 337 333 333 330 328 329 329 329 329 329 331 333 335 337 339 340 340 341
350 349 348 347 347 345 344 345 344 345 345 342 342 344 344 345 344 343 342 343 345 345 345 343 343 342 341 340 339 339 340 339 337 336 339 342 342 345 349 349 347 345 344 342 345 348 347 348 348 349 350 349 348 347 347 345 344 344 343 342 342 342 342 342 341 340 341 342 339 336 334 330 328 328 329 329 330 331 334 336 337 339 340 341 342
350 349 349 347 346 343 343 345 343 345 345 342 343 342 341 343 342 341 341 341 344 345 345 343 341 341 341 340 340 339 338 338 337 336 338 343 346 347 350 348 344 345 346 342 346 349 348 348 349 350 350 349 348 346 345 346 345 344 343 343 342 342 343 342 342 342 342 342 342 339 336 333 330 330 330 329 331 333 335 337 338 338 340 341 342
350 350 349 347 347 343 341 344 343 344 345 343 343 341 339 340 339 339 338 339 343 345 345 345 343 342 341 340 339 339 338 337 338 337 339 345 349 349 349 346 342 345 346 342 346 349 348 348 350 350 351 350 348 345 344 344 345 343 342 343 342 343 343 343 343 343 342 343 343 341 338 335 331 329 329 330 332 334 335 336 337 338 340 342 343
350 351 349 348 349 343 341 345 344 343 345 344 343 341 338 336 337 338 337 339 344 345 345 346 344 344 343 339 337 337 336 336 338 339 342 348 350 350 350 345 344 346 344 344 348 348 348 349 349 349 351 352 349 346 345 344 343 342 342 342 343 343 343 343 343 343 343 344 343 342 342 338 332 331 334 335 336 337 337 337 338 338 339 341 342
350 351 350 349 349 345 345 345 342 343 345 344 343 341 338 336 338 339 338 342 346 345 345 345 345 345 343 338 336 337 335 336 338 339 343 347 349 350 349 345 345 346 344 346 349 348 349 350 350 348 348 351 350 347 346 345 343 341 341 342 342 344 344 343 344 343 343 344 344 342 343 342 339 339 339 340 341 339 339 340 339 339 340 340 341
350 351 350 350 349 347 346 342 340 343 343 343 343 341 339 339 341 342 339 343 346 345 345 345 345 346 343 336 335 337 335 335 337 338 341 346 349 350 348 345 346 346 345 348 349 347 346 347 350 349 348 351 350 349 348 346 344 342 341 341 343 344 344 344 343 343 343 342 343 342 342 342 343 342 339 339 342 340 338 339 340 341 342 342 342
351 351 349 349 348 347 346 341 339 340 340 342 343 342 341 342 345 345 342 343 346 345 345 346 346 347 343 336 335 337 335 335 337 338 339 344 349 350 347 346 347 346 345 349 350 347 343 343 346 347 350 352 349 349 347 345 344 343 343 341 343 344 343 344 344 343 343 342 341 341 342 341 341 343 341 342 343 343 341 339 339 342 344 343 343
352 350 350 349 348 348 346 342 340 338 338 341 343 344 344 344 346 346 345 346 345 344 346 347 347 347 342 335 336 337 335 336 337 339 340 341 346 348 346 345 346 346 344 346 348 345 342 343 345 346 350 351 349 348 346 346 345 342 343 341 340 342 342 343 343 343 342 342 341 340 341 341 341 342 343 343 343 344 345 342 341 344 345 345 344
351 349 351 350 348 349 348 345 342 337 337 339 341 344 344 344 346 347 347 347 345 345 347 347 347 345 337 334 337 338 337 336 337 339 341 342 346 347 345 343 345 345 343 343 343 342 342 343 346 349 351 350 350 348 347 347 344 340 342 342 339 340 341 342 342 342 342 342 341 340 340 340 340 341 342 343 344 344 344 345 346 347 345 343 344
352 349 351 350 348 349 348 345 343 339 337 336 338 341 342 343 347 348 349 348 346 347 348 347 347 345 337 335 337 337 337 338 339 341 342 343 345 346 347 344 343 344 344 343 341 340 340 342 348 351 350 351 350 348 348 347 344 342 342 341 339 339 340 342 342 341 341 341 340 340 339 339 340 341 341 343 344 344 345 345 346 345 342 341 343
353 351 352 351 348 347 345 343 343 340 337 335 335 337 338 339 343 345 347 348 348 348 348 345 346 346 342 339 338 336 339 344 344 344 345 344 342 344 348 346 343 343 344 343 342 343 344 346 350 349 348 351 351 348 348 347 346 345 345 343 338 337 339 341 341 341 340 340 340 339 339 339 339 341 342 342 343 344 345 345 346 343 340 340 340
353 352 353 352 350 346 342 342 342 340 338 336 334 335 337 338 338 340 341 344 345 345 346 346 346 346 346 344 342 338 342 348 347 346 348 344 340 343 345 344 343 343 344 346 348 349 348 349 349 347 349 351 352 351 349 349 347 344 347 348 341 340 342 341 340 342 340 338 339 339 339 339 340 341 342 343 343 344 344 344 345 342 339 341 341
352 352 352 352 350 345 342 342 341 340 340 338 336 336 337 338 338 338 338 340 343 345 346 348 347 346 347 347 346 342 342 347 347 346 348 344 340 341 341 343 344 343 344 346 349 349 349 352 350 349 353 350 349 353 352 349 348 345 346 349 347 346 347 345 343 344 342 340 340 340 340 339 339 341 342 342 343 344 343 343 344 343 343 344 343
350 351 352 353 350 345 341 342 342 340 340 339 338 337 337 336 336 338 340 341 344 346 346 347 348 347 348 348 347 345 341 345 348 347 346 344 341 341 341 342 345 345 345 345 349 351 353 354 350 346 349 346 344 351 354 351 350 348 347 348 348 348 347 347 346 345 345 344 342 341 341 341 341 341 342 341 342 343 343 343 342 345 347 345 342
350 350 351 352 350 344 342 342 341 341 340 339 338 337 337 337 336 338 342 343 344 345 343 345 348 347 348 348 348 347 341 341 348 347 343 343 342 341 341 342 344 346 345 346 350 353 353 351 346 342 344 343 344 348 350 351 351 350 349 348 348 347 347 347 347 345 346 346 345 343 343 342 342 343 343 343 343 343 344 344 343 345 349 347 344
349 349 350 352 349 344 343 342 341 342 340 339 339 338 338 339 339 340 341 342 346 346 342 342 345 343 344 344 344 346 344 339 341 344 343 344 343 342 342 342 345 345 346 350 352 351 350 347 344 344 345 346 347 345 346 351 352 351 351 351 350 348 347 347 347 346 346 346 345 343 345 344 343 345 346 345 346 346 346 347 346 347 351 352 350
348 349 350 352 350 345 343 342 340 341 341 340 340 339 339 341 342 341 340 341 344 345 345 343 340 337 338 339 336 338 343 342 340 341 342 344 343 343 343 344 347 347 347 349 350 348 346 344 345 347 347 346 347 347 349 352 352 352 351 352 352 349 349 349 348 348 347 347 347 345 345 345 344 346 347 348 347 347 348 349 348 349 352 354 353
348 350 350 352 352 347 344 343 341 341 341 340 341 340 340 340 341 340 338 339 341 341 343 341 337 335 337 340 340 336 340 345 345 343 342 342 344 344 344 346 347 347 346 346 348 350 350 350 350 348 345 345 346 347 350 352 352 351 350 352 351 349 349 349 348 350 349 348 349 347 346 346 346 346 347 349 348 348 350 349 349 351 353 354 355
Wind_Speed
15 14 14 15 16 16 16 16 17 16 15 16 15 15 16 16 16 15 13 12 12 12 11 10 9 9 11 13 14 14 14 14 14 16 17 16 16 16 17 17 17 17 18 19 18 18 18 17 17 17 17 17 18 18 17 17 17 16 17 17 16 15 16 17 17 17 17 16 17 17 17 16 16 16 15 15 16 15 15 15 14 13 11 10 11
15 14 14 14 16 15 16 16 16 16 15 15 15 15 15 15 15 14 12 11 11 11 11 10 9 9 10 12 12 12 12 14 15 16 16 15 16 17 17 17 17 17 17 18 18 17 17 17 17 17 17 17 17 17 16 16 16 16 16 16 16 15 16 16 17 17 17 17 17 17 16 16 16 15 15 14 14 14 14 14 14 13 12 12 12
16 14 14 14 16 16 16 17 17 16 15 15 14 15 14 14 14 13 12 11 10 10 11 10 9 10 10 10 11 11 12 15 16 15 15 16 17 17 17 18 18 17 17 17 18 17 16 16 17 17 17 16 17 17 16 16 16 15 15 15 16 16 16 16 16 17 17 16 16 15 15 15 14 14 14 13 13 13 13 13 13 13 13 13 13
14 14 14 13 14 15 15 16 17 16 15 14 14 15 14 14 13 12 11 11 10 10 11 11 12 11 10 11 12 13 14 17 17 15 15 16 17 17 17 17 18 17 16 16 17 16 16 16 16 17 16 16 16 16 15 15 15 15 14 15 16 16 17 16 16 16 15 15 14 14 13 13 13 12 13 13 12 13 13 13 13 13 13 13 13
13 13 13 13 12 13 14 13 14 14 14 15 14 14 13 13 12 12 11 10 10 11 12 13 15 12 12 14 14 15 17 17 16 15 16 16 16 17 17 17 17 17 16 16 16 16 16 16 16 16 16 16 17 16 15 15 15 15 15 16 16 16 17 16 16 15 15 15 14 13 13 13 13 12 12 12 12 12 12 12 12 12 13 13 12
12 13 12 13 12 12 13 13 12 13 14 15 15 14 13 12 11 11 11 10 10 11 12 14 16 15 14 16 16 17 18 17 16 16 16 16 16 16 17 17 16 16 16 16 16 15 16 16 15 15 16 16 16 16 15 15 14 14 15 16 16 15 16 16 15 15 14 13 13 13 12 12 13 12 12 12 11 11 11 11 11 11 11 11 11
13 13 11 12 12 12 13 13 12 13 13 14 14 13 13 12 10 10 9 9 10 11 13 14 16 16 15 17 18 17 17 16 15 16 15 16 16 16 17 16 16 16 16 16 15 15 16 16 15 15 15 16 16 15 15 14 13 13 14 14 14 14 15 15 14 13 13 12 12 13 12 12 13 12 12 12 11 11 11 11 10 10 10 11 10
12 12 11 11 11 12 13 13 12 12 12 13 13 12 12 12 11 10 9 9 10 11 13 14 15 17 17 17 18 17 16 15 14 15 16 15 16 16 16 16 16 15 15 15 15 14 15 15 15 14 15 16 15 14 14 14 13 12 12 12 12 13 14 14 14 13 13 13 13 13 12 12 12 11 12 11 11 11 11 11 10 9 9 10 10
12 12 12 11 11 12 12 12 11 11 11 12 11 11 12 12 11 11 11 10 11 11 12 14 14 16 17 17 17 16 15 14 14 15 15 15 15 15 15 15 15 14 15 15 14 14 14 15 15 14 15 16 15 15 15 14 13 12 11 11 11 12 13 14 14 13 12 12 12 12 11 11 10 9 10 10 10 10 10 10 9 8 8 8 9
12 12 12 11 12 12 11 11 11 11 11 11 10 10 11 11 11 11 12 12 11 11 11 13 14 15 16 17 16 15 14 13 13 14 15 15 15 15 15 15 14 14 14 14 14 14 14 14 14 14 15 15 16 16 15 13 12 12 11 11 11 12 13 13 13 11 11 11 11 10 10 10 9 8 9 10 9 9 9 9 9 8 7 7 7
13 12 12 12 14 13 12 11 11 11 11 11 10 10 10 10 11 10 11 11 11 11 11 13 14 14 16 16 16 15 14 13 13 13 14 14 15 14 14 14 14 13 13 13 14 14 14 14 14 14 14 15 15 16 15 13 12 11 11 11 12 13 13 13 13 10 11 11 11 10 9 9 8 7 8 9 9 8 7 8 7 7 7 7 6
13 12 12 13 13 13 12 11 11 11 10 12 11 11 11 10 10 9 10 10 10 10 11 13 13 14 15 16 16 15 14 13 12 12 13 14 14 14 15 15 13 13 13 13 14 14 14 14 14 14 13 14 14 15 15 13 11 11 11 12 13 13 13 14 12 10 11 11 10 10 9 9 7 7 7 7 7 6 6 6 6 6 6 6 6
13 12 11 12 11 11 11 11 11 11 11 11 11 10 10 9 8 8 9 9 10 11 10 10 11 13 14 14 15 14 14 13 12 12 12 13 13 14 14 14 13 13 13 13 13 13 14 14 14 14 14 14 14 15 14 13 11 12 12 13 14 13 13 13 12 11 11 11 10 9 8 8 5 5 6 5 4 3 4 4 4 5 5 6 5
13 12 11 11 10 10 9 9 9 9 10 10 9 9 9 8 8 8 8 9 10 10 10 10 10 12 13 14 14 14 13 13 11 12 12 12 12 13 14 14 13 13 13 13 13 12 13 13 14 13 14 14 14 14 14 12 11 12 13 13 13 13 14 12 11 12 11 10 10 9 6 5 3 3 4 4 4 4 4 4 4 4 4 4 3
13 12 11 10 10 8 8 7 7 7 8 8 7 7 8 8 8 9 9 9 9 9 10 9 9 11 13 13 13 13 12 12 11 11 11 11 12 12 13 14 13 14 13 12 13 12 12 12 13 14 14 14 13 14 13 12 11 12 12 13 12 12 13 11 9 11 10 10 10 8 5 4 4 4 5 5 6 7 6 5 5 5 4 3 3
12 11 10 10 9 8 7 7 7 7 7 7 7 8 8 8 8 9 10 9 9 9 10 10 9 10 12 13 13 12 12 12 11 10 10 10 11 12 13 13 13 13 13 12 12 12 11 12 13 14 14 13 13 14 12 12 11 12 12 12 13 11 14 12 9 9 9 8 8 8 6 4 6 7 8 9 9 8 7 7 7 7 6 6 6
12 11 9 8 7 7 7 7 7 7 7 7 7 8 8 8 9 9 10 9 9 9 10 11 10 10 11 12 12 12 12 11 11 9 10 10 9 10 11 11 12 12 12 11 11 11 11 12 13 14 13 13 13 13 12 12 11 12 11 11 12 11 14 14 9 7 7 8 9 8 6 6 9 9 10 11 11 10 9 8 8 8 7 7 7
10 9 8 7 7 6 6 7 7 6 6 6 6 7 7 8 9 9 9 9 10 10 10 10 11 10 11 12 12 13 12 11 10 9 10 10 9 10 10 10 10 11 10 10 10 10 11 11 12 12 13 13 13 13 12 13 12 12 11 11 12 11 13 13 8 5 7 8 8 7 6 7 9 10 11 11 11 10 10 10 9 9 8 8 9
9 8 8 7 6 6 6 6 7 7 6 6 6 7 7 8 8 8 9 10 11 11 11 10 11 11 11 12 12 13 13 12 11 10 9 10 10 10 10 10 9 8 8 9 10 10 11 11 11 11 12 13 13 13 13 13 13 12 11 11 12 11 10 10 7 6 6 6 7 5 6 9 10 10 11 11 11 10 10 10 9 9 9 9 9
8 8 7 7 6 5 6 6 6 6 6 6 5 6 6 8 8 7 9 11 11 11 12 11 11 11 12 13 13 14 13 12 11 10 10 11 11 10 10 10 9 7 7 9 10 10 10 10 11 11 12 13 13 13 13 12 12 12 12 11 11 10 7 7 7 7 5 5 8 5 6 10 10 11 11 11 11 10 10 9 9 9 9 9 9
8 8 7 6 5 4 5 5 5 4 5 5 5 6 6 8 8 7 8 10 11 11 11 12 11 11 12 13 14 13 13 13 11 11 11 12 11 10 10 9 8 7 8 9 10 10 11 11 12 12 13 13 13 12 12 11 11 11 11 10 11 8 5 5 6 6 4 5 7 6 7 10 10 11 11 11 11 10 9 9 9 9 9 9 9
8 7 6 6 5 4 4 4 4 4 5 5 5 6 6 7 8 8 8 9 10 11 11 12 12 12 13 13 14 13 12 13 12 12 12 12 12 10 9 8 7 8 9 9 11 11 11 12 13 13 13 12 11 10 9 10 11 11 10 10 9 6 4 6 6 5 5 5 6 7 9 11 11 11 11 11 10 9 9 8 8 9 9 9 8
8 6 6 6 5 4 4 4 3 3 5 6 6 6 6 8 8 8 9 9 10 12 12 12 12 12 13 14 15 14 13 14 14 13 12 11 12 10 9 8 8 9 10 10 11 12 12 12 12 13 12 10 10 8 7 6 7 7 9 9 6 5 6 7 6 5 4 5 6 8 10 11 11 11 10 10 9 9 9 8 8 8 9 9 9
7 6 6 6 5 5 4 4 3 2 4 5 6 6 6 7 8 8 9 10 11 12 13 13 13 13 13 14 15 15 14 15 14 14 12 12 11 10 9 9 9 9 10 11 12 12 12 12 12 13 11 9 8 6 5 4 4 4 5 5 4 5 6 5 5 4 4 6 8 9 10 11 11 10 9 9 9 9 9 9 9 9 10 10 11
7 6 6 5 5 5 5 4 4 3 4 5 5 6 6 7 9 10 10 10 10 11 12 13 13 13 13 13 15 15 15 14 14 14 13 12 12 10 9 8 8 9 11 11 11 11 11 11 11 10 8 7 5 4 4 3 3 3 3 3 3 4 4 4 4 4 4 6 9 10 10 10 10 10 9 9 9 9 9 9 10 11 11 12 13
7 6 5 5 4 4 5 5 4 4 4 5 5 6 7 8 9 10 11 11 11 12 11 11 12 13 13 13 14 13 14 14 13 13 12 12 12 10 9 9 9 10 10 9 10 10 8 9 9 8 7 5 4 4 4 3 3 3 3 3 4 4 4 4 3 4 5 6 9 9 10 10 10 10 9 9 9 9 9 10 11 13 13 13 14
7 6 5 5 4 4 4 5 4 5 5 5 5 6 7 8 10 10 10 11 12 12 12 11 11 13 14 14 14 12 13 13 12 12 12 11 11 10 9 10 10 10 10 8 9 10 8 8 8 7 7 5 4 4 4 3 3 4 3 3 4 4 4 4 3 4 5 7 9 9 9 9 9 10 9 8 8 9 10 12 13 14 14 14 14
7 7 6 5 4 4 4 5 5 4 5 5 6 6 7 8 9 10 11 12 13 13 13 13 13 13 14 15 13 12 13 13 12 12 12 11 11 11 10 10 9 9 10 8 8 9 8 8 7 7 7 6 4 4 4 3 4 4 4 4 5 4 5 4 3 5 5 6 8 8 8 9 10 10 9 9 8 9 11 13 14 15 15 15 15
7 7 6 5 5 5 5 5 5 5 5 6 7 7 8 8 9 10 11 12 13 13 13 14 13 12 14 16 14 12 12 13 13 13 12 12 12 12 11 10 10 9 9 8 8 8 8 7 7 7 6 6 5 3 4 4 4 4 4 5 5 5 5 5 5 6 5 6 7 7 8 9 10 10 9 9 9 10 12 13 14 15 15 15 14
8 8 7 6 6 5 5 5 6 5 6 7 7 8 9 10 10 11 12 11 13 14 13 13 13 12 14 17 15 14 13 12 13 13 13 13 12 12 11 10 9 8 7 8 8 8 7 6 7 6 5 5 4 4 4 5 4 5 5 5 5 5 5 5 6 6 6 6 7 7 8 9 9 9 9 9 10 11 12 13 14 14 14 14 14
9 8 8 7 6 6 5 6 6 6 6 7 7 8 10 10 11 12 12 12 14 15 14 13 13 13 15 16 15 14 13 12 13 13 13 13 12 13 11 9 7 7 7 7 6 7 7 7 7 6 5 5 5 4 5 5 5 5 6 6 6 5 5 6 6 6 5 4 6 7 8 9 9 9 9 10 11 11 12 13 14 13 12 12 12
9 9 8 7 7 6 6 6 7 7 7 8 8 8 9 10 11 12 13 14 15 15 14 13 14 14 15 15 14 14 13 13 14 14 14 13 12 12 10 8 6 7 7 6 6 7 8 7 7 8 7 6 5 4 5 5 5 5 5 6 6 6 6 6 6 5 5 5 7 8 7 9 9 9 10 10 11 11 12 12 12 12 11 10 10
9 9 8 8 8 7 7 7 7 8 8 8 9 9 9 10 11 11 13 14 14 14 13 13 14 14 15 14 14 14 14 13 14 14 14 13 12 11 8 6 6 6 6 6 7 7 7 6 6 6 6 5 5 4 5 5 5 5 5 5 6 6 6 6 6 5 5 5 5 7 7 9 9 10 10 10 10 10 11 11 10 10 9 9 8
10 10 9 10 9 8 8 7 8 8 8 9 9 9 10 11 11 13 14 14 13 12 13 13 14 14 14 14 14 14 13 14 14 15 14 12 11 9 7 5 5 6 5 6 6 5 5 6 4 4 5 5 4 4 5 5 5 5 5 5 5 5 5 5 5 5 5 4 4 6 7 8 9 10 10 9 9 9 9 9 9 8 7 7 6
9 10 11 10 9 8 8 8 9 9 9 9 9 10 11 12 13 14 14 14 13 12 12 12 13 13 13 13 14 14 14 14 14 14 14 11 8 7 6 5 6 6 5 6 5 4 4 5 4 4 4 4 4 4 4 4 4 5 5 5 5 5 5 5 5 4 4 5 4 5 6 7 8 9 9 8 8 8 8 8 7 7 6 5 4
9 10 11 11 9 9 9 9 9 10 10 10 10 10 12 13 14 15 15 15 14 13 12 11 12 13 13 13 13 14 14 15 14 14 13 10 7 6 4 5 6 5 5 6 4 3 4 4 4 5 5 5 5 4 4 4 4 4 4 5 5 5 5 5 5 4 4 4 4 4 5 6 7 8 8 8 7 7 6 6 6 5 4 3 3
10 11 12 12 10 9 10 9 9 10 10 11 10 11 12 13 15 15 15 15 13 12 12 12 12 12 12 13 14 14 14 14 14 13 12 8 6 5 3 4 5 4 5 6 4 3 4 3 4 5 5 5 4 3 3 3 3 4 4 5 5 5 5 4 4 4 4 3 3 3 3 3 4 6 6 5 5 5 5 5 4 3 2 1 0
9 11 11 12 11 10 11 10 10 10 11 12 11 11 13 14 14 15 15 14 11 11 12 12 12 11 12 13 14 13 14 14 13 12 11 8 6 5 3 4 4 4 5 4 4 4 4 3 3 4 5 5 4 3 3 2 2 3 3 4 4 4 4 3 3 3 3 3 3 3 3 2 2 3 4 4 3 3 4 3 2 2 1 1 2
10 11 11 12 12 11 12 12 11 11 11 12 12 12 13 13 13 13 15 15 12 11 12 12 11 10 11 13 14 13 13 13 12 11 10 7 5 3 3 4 4 4 4 4 3 4 5 4 3 3 5 5 4 4 3 2 1 1 2 3 3 3 3 2 3 3 2 2 2 3 3 3 2 2 2 3 2 1 1 1 1 0 1 2 2
11 11 12 12 13 13 12 12 12 12 12 13 13 13 13 12 12 12 13 13 12 13 12 11 10 10 10 13 13 12 13 13 12 11 9 7 4 3 3 4 4 4 5 5 3 5 7 5 3 3 5 4 3 3 3 2 1 0 1 1 2 3 3 2 2 2 2 2 2 3 3 3 3 3 2 2 3 3 4 3 2 2 3 4 4
11 11 12 13 13 13 13 13 13 13 13 14 14 13 13 13 12 11 11 11 12 13 11 10 10 9 11 13 12 11 12 12 11 10 9 7 5 4 4 4 3 4 5 6 5 6 7 5 2 3 4 3 3 3 3 2 1 1 0 1 2 3 3 2 2 3 3 3 3 3 4 4 4 4 3 4 4 4 5 5 4 4 6 6 7
12 11 12 13 13 13 14 14 14 14 13 14 15 15 14 13 12 10 10 10 12 11 10 9 9 9 12 13 12 12 11 11 11 9 9 7 5 4 4 4 4 4 5 6 6 7 7 5 1 2 2 2 3 3 4 2 1 0 0 1 3 4 3 3 3 3 3 3 3 4 4 5 5 4 4 4 4 4 4 5 5 6 7 8 9
12 11 12 14 14 14 14 15 15 15 14 14 15 15 15 14 13 11 10 10 11 10 9 10 9 9 11 12 12 12 11 11 9 9 8 7 6 5 4 4 4 4 5 6 7 7 6 4 1 1 1 2 2 3 4 3 2 1 1 1 4 5 3 3 3 2 2 2 2 3 4 5 5 5 5 5 5 4 5 5 7 8 9 10 10
12 12 13 14 15 15 15 15 16 16 15 14 14 14 15 15 14 13 12 11 11 11 11 11 11 10 11 12 12 12 11 9 8 8 7 7 7 6 4 4 4 5 5 6 6 5 5 4 2 2 1 1 2 3 4 4 4 2 1 1 2 4 3 3 3 2 2 2 1 2 2 4 4 4 5 5 5 5 5 6 8 10 11 12 13
13 13 14 14 15 15 14 14 15 16 15 14 14 14 14 14 14 14 14 14 13 13 12 11 11 12 12 11 11 12 11 9 8 8 6 7 7 6 5 5 5 5 5 4 4 4 4 3 3 3 1 1 2 3 3 3 4 4 3 1 1 2 1 2 2 2 3 3 2 1 2 3 4 4 5 5 5 6 6 7 9 13 13 13 13
13 13 13 13 14 14 14 15 15 16 16 15 15 15 15 16 16 16 16 15 14 13 12 11 11 12 11 11 11 11 11 9 8 8 7 7 7 6 6 5 5 6 5 5 4 3 3 2 4 3 1 1 1 3 2 2 3 3 4 2 1 0 2 3 3 3 3 4 3 2 1 2 4 4 5 6 6 6 6 7 9 11 11 11 11
13 13 13 13 13 13 13 15 16 16 16 16 16 16 16 16 17 16 16 15 14 13 13 11 10 11 10 10 11 11 12 10 8 8 8 8 8 7 6 6 5 5 5 5 4 3 3 3 5 6 3 3 1 2 2 2 2 1 1 1 1 1 2 2 3 3 3 4 3 3 2 1 3 3 4 5 5 5 6 8 9 7 7 11 11
13 14 14 13 13 11 12 14 16 17 17 16 17 17 17 16 16 16 15 15 13 13 15 13 11 11 11 11 10 10 12 11 9 9 10 9 8 7 7 6 6 5 5 4 3 3 4 4 6 7 5 5 2 1 1 1 2 1 1 1 1 2 2 2 3 3 4 4 4 4 3 2 3 2 3 5 4 4 6 7 7 6 8 13 14
14 14 14 14 14 11 11 14 15 17 18 17 17 17 17 16 15 16 16 15 13 13 14 13 12 13 12 12 11 10 11 11 11 10 10 9 8 8 7 6 6 5 5 4 4 5 5 6 6 6 5 5 4 4 3 2 2 2 2 3 3 3 4 4 4 4 5 4 4 5 5 3 4 4 4 5 5 5 6 6 7 6 6 10 12
15 15 15 15 14 13 12 14 15 17 18 17 17 17 17 16 14 15 16 16 15 13 12 13 13 14 13 12 12 12 10 9 10 10 10 9 9 8 7 6 6 6 6 6 6 5 5 5 5 5 6 6 6 5 4 4 4 4 3 4 4 4 5 5 5 5 5 5 5 7 7 5 5 6 5 6 7 7 7 7 7 6 5 7 8
15 15 15 16 15 15 14 14 14 16 17 18 18 17 17 17 15 15 14 15 16 15 13 14 14 14 13 11 11 11 10 9 9 10 10 10 9 9 8 7 7 7 7 7 6 5 4 4 5 6 7 6 6 6 6 5 6 6 5 5 5 6 5 5 6 6 6 6 7 8 8 7 7 7 7 7 8 8 7 7 7 6 6 7 7
Wind_Direction
133 134 134 131 124 124 123 119 120 124 126 124 127 127 126 125 124 123 124 127 127 128 130 136 140 143 145 131 118 116 116 118 122 121 122 118 113 109 109 109 109 109 108 107 107 107 105 104 104 104 103 103 103 102 104 105 105 106 106 105 105 106 105 102 100 99 98 97 97 97 96 96 97 95 93 91 93 93 92 94 96 98 103 107 106
136 136 133 133 127 127 126 124 126 129 131 131 130 128 127 125 126 126 126 127 128 133 134 140 143 139 129 117 117 122 121 125 126 122 120 117 113 111 110 109 109 108 107 108 110 109 106 106 105 103 103 103 103 102 103 103 104 106 106 107 107 105 101 99 98 97 94 92 90 90 92 94 93 94 94 94 94 95 95 95 95 95 97 98 101
134 132 132 136 131 130 133 132 134 134 133 133 131 129 129 128 130 130 129 128 131 136 134 138 130 118 118 123 129 130 127 128 128 123 118 116 114 114 112 111 110 108 108 109 110 108 107 106 103 102 102 101 100 101 101 101 103 103 104 106 106 104 100 98 96 94 92 89 86 84 84 86 88 91 93 94 94 96 96 97 96 96 96 94 96
129 131 133 135 131 130 133 135 137 138 136 135 135 133 133 132 132 131 131 130 133 136 133 128 114 112 127 132 129 124 125 128 129 124 118 118 117 116 114 112 111 110 111 110 108 105 105 102 100 100 99 98 96 95 96 98 99 98 100 102 102 102 101 98 94 91 90 90 89 86 85 85 87 89 91 92 94 96 96 97 97 95 94 94 95
128 130 131 129 128 131 133 135 136 138 139 139 137 134 134 135 134 133 131 132 134 135 132 122 113 117 127 126 123 121 123 128 130 126 123 121 118 115 112 111 110 111 110 107 105 104 103 101 99 98 97 96 94 92 92 93 93 95 96 97 98 98 98 96 92 90 93 94 93 92 92 91 90 91 92 93 93 95 95 95 95 94 93 92 92
132 126 124 127 131 137 138 138 139 143 144 139 136 134 135 136 136 135 133 135 136 131 127 121 118 121 125 124 123 122 124 128 129 128 127 123 118 114 112 111 111 109 107 106 106 105 103 100 99 98 96 93 91 90 90 90 90 94 95 95 96 95 93 92 92 95 98 96 95 96 94 92 91 94 95 94 94 95 95 95 94 94 92 90 89
135 127 123 129 136 144 142 141 144 147 143 136 134 136 140 141 141 141 139 139 138 133 128 124 123 126 127 127 127 125 126 127 129 129 126 123 119 113 111 112 111 109 109 109 107 104 102 100 98 96 94 90 88 87 87 90 91 92 93 93 93 93 92 91 92 94 95 94 96 97 94 92 91 94 96 96 96 95 95 96 97 96 94 94 91
133 129 129 136 143 148 143 142 145 145 142 135 133 138 145 147 150 153 151 151 144 138 135 131 129 130 130 129 129 128 127 125 125 126 124 123 118 114 114 113 113 113 112 110 105 103 103 102 100 97 96 93 91 89 88 88 89 89 90 91 89 89 90 90 91 88 87 91 94 94 91 89 88 90 95 97 97 97 97 96 97 98 100 100 97
133 132 135 144 149 148 143 144 147 147 142 137 137 139 146 151 158 157 152 157 148 141 143 141 137 133 131 130 130 130 129 125 119 119 121 122 119 117 116 116 117 115 113 110 107 105 105 103 100 99 98 98 94 90 87 85 86 88 90 91 91 91 91 90 88 85 86 87 88 89 88 85 84 85 91 97 98 101 103 102 102 103 106 106 105
136 137 142 149 151 150 147 148 150 147 143 141 143 142 150 158 161 156 148 153 152 150 150 144 141 138 133 128 128 130 131 127 119 118 119 121 121 119 117 117 118 116 113 111 110 108 106 102 100 99 99 99 96 93 89 85 83 86 90 91 94 95 94 91 86 86 88 86 84 85 87 88 86 85 91 96 98 102 103 104 107 110 111 110 111
139 141 148 152 153 153 150 151 149 144 142 144 149 147 154 164 161 155 148 148 151 154 153 150 147 138 132 126 127 129 131 130 124 122 121 121 120 121 121 118 117 115 113 112 111 108 105 103 100 99 100 101 99 98 95 89 84 86 88 89 92 93 96 94 87 91 95 95 93 87 87 90 91 91 91 94 97 101 101 103 106 109 110 108 107
141 145 152 152 152 152 150 152 149 143 143 148 155 154 155 165 162 153 149 150 149 153 157 157 149 134 130 128 130 132 130 132 130 127 122 122 121 121 121 119 119 117 116 115 112 108 105 101 99 100 103 105 102 98 96 91 86 87 90 91 91 92 98 97 92 99 104 105 100 90 89 91 93 96 90 88 94 101 106 109 110 112 110 109 107
140 146 153 149 150 153 152 154 152 145 148 155 161 159 155 160 158 153 154 154 151 155 156 152 145 133 133 133 134 137 134 133 134 130 124 124 122 120 119 120 124 122 118 116 111 108 105 101 100 104 107 107 104 99 96 93 88 88 89 89 89 92 97 98 101 106 108 108 97 88 91 93 94 98 94 85 86 106 130 127 126 127 125 125 122
140 147 149 148 151 155 157 153 152 151 153 159 163 163 159 157 158 160 162 161 155 154 147 144 144 136 138 138 138 142 139 137 137 132 128 126 124 122 119 121 126 124 119 116 112 108 106 105 104 107 107 106 103 99 96 94 91 88 86 84 86 92 92 90 97 105 112 113 98 88 91 105 122 122 110 98 94 110 138 140 144 150 150 148 144
143 148 145 146 153 157 161 155 155 159 158 158 162 164 161 162 165 166 168 168 162 153 144 144 148 144 144 143 142 144 142 140 138 134 130 129 128 126 122 124 127 124 121 116 112 110 108 107 105 105 105 106 105 100 97 97 94 88 83 83 83 89 95 91 92 98 107 111 103 94 98 127 142 135 115 104 101 101 109 115 122 134 138 132 127
147 146 142 145 153 162 167 167 166 166 167 166 167 167 165 169 171 173 173 171 166 158 151 149 149 149 145 144 144 144 143 139 137 137 133 132 129 126 125 126 127 122 119 116 114 113 110 108 107 106 104 106 105 101 101 100 97 89 83 85 86 89 97 96 87 88 100 108 106 97 95 111 115 111 103 99 97 91 92 98 104 113 116 115 114
148 143 142 145 154 166 173 176 173 171 174 179 183 176 173 174 176 181 177 170 173 169 161 155 150 149 146 146 147 145 146 139 134 134 133 133 129 127 125 123 123 118 116 117 118 117 114 111 109 108 107 107 106 105 106 101 96 91 84 85 90 94 98 94 87 94 110 114 107 97 93 103 105 102 98 98 98 94 93 95 101 106 109 110 110
147 144 145 152 164 172 183 181 172 176 175 184 194 182 177 175 179 182 170 168 178 175 166 159 152 150 148 149 149 148 147 140 134 130 130 134 131 125 120 119 119 116 119 123 123 122 119 116 111 109 108 110 110 108 107 102 96 91 87 87 89 96 95 88 87 94 98 100 95 94 106 109 105 104 101 98 98 98 97 98 103 105 108 110 108
147 147 151 161 174 173 188 185 169 178 177 178 178 172 173 167 176 180 163 169 181 173 165 160 155 155 153 151 150 148 145 142 138 132 132 135 132 126 123 124 119 117 124 125 124 124 123 121 116 113 113 113 112 108 104 99 94 92 91 88 87 89 83 81 91 90 84 94 96 101 117 112 108 107 104 101 100 99 99 98 100 102 104 104 101
151 153 160 166 175 173 184 180 169 174 163 164 160 161 168 159 165 173 163 168 175 169 163 159 157 157 154 152 148 145 142 139 135 132 134 134 132 126 125 124 116 119 127 124 123 125 125 122 119 118 118 115 108 102 97 93 92 92 92 91 85 79 75 84 92 87 86 101 106 116 117 110 109 107 104 103 101 98 98 96 96 98 99 97 93
157 161 165 166 170 172 176 162 161 158 141 151 150 151 163 162 162 166 166 166 165 163 162 157 156 155 153 153 146 143 139 135 133 132 134 134 131 126 126 122 118 128 126 122 122 122 120 117 118 120 120 117 108 97 89 90 92 93 95 94 84 75 75 89 86 85 88 87 99 118 113 108 107 105 104 102 101 99 99 99 99 99 98 95 91
166 168 164 168 168 166 168 148 148 148 138 145 148 149 159 165 163 167 170 164 157 158 160 156 158 156 154 154 142 139 138 136 136 134 134 133 128 126 126 121 124 129 120 119 118 115 114 113 115 117 121 117 106 95 85 85 90 94 92 85 81 80 81 86 85 85 90 90 104 117 109 105 105 104 103 102 101 100 100 101 101 101 99 98 93
171 166 166 175 166 160 157 133 136 148 140 139 151 157 157 159 157 165 166 159 156 157 161 157 160 160 158 154 141 140 139 137 138 134 134 131 126 126 126 125 130 127 118 116 112 111 111 111 115 118 120 110 94 90 88 83 86 84 76 74 77 83 76 74 77 72 86 106 111 113 108 105 103 103 102 102 102 100 100 101 101 101 102 102 100
167 163 175 183 163 155 146 128 128 130 124 127 145 154 154 155 151 157 158 156 157 158 161 158 158 159 159 152 140 140 139 136 137 132 131 128 123 121 121 123 127 127 120 114 112 113 111 111 116 115 107 97 91 90 95 96 86 67 66 78 77 71 65 63 76 79 88 109 112 111 106 103 102 101 101 102 100 100 101 102 103 102 103 104 103
165 166 176 183 167 154 140 133 130 120 116 119 133 142 145 148 146 151 151 150 155 157 158 157 156 154 154 147 138 140 139 137 136 133 133 128 121 120 123 126 131 132 121 116 117 115 112 110 108 103 95 91 93 94 95 90 79 70 74 91 81 67 70 67 77 88 92 105 109 107 103 101 101 98 97 98 99 101 104 106 107 105 104 104 102
164 168 175 179 170 155 138 129 127 125 125 127 135 140 141 140 141 146 150 152 155 155 154 153 152 150 148 143 138 139 139 140 137 133 134 129 123 129 138 139 138 133 120 121 121 113 111 110 101 97 99 93 85 83 80 70 70 76 69 71 74 68 77 79 72 85 97 105 105 102 101 100 98 96 93 95 100 107 111 111 108 105 103 101 98
163 168 175 178 164 155 141 125 125 128 127 134 138 138 141 141 140 145 155 158 155 155 155 154 153 148 146 143 141 140 140 142 139 135 134 130 130 140 147 141 137 131 122 122 120 114 114 110 101 97 96 91 79 69 60 53 62 76 74 68 73 75 81 83 80 87 91 100 101 99 98 98 96 95 95 98 107 114 115 111 106 103 101 98 94
162 167 174 176 162 162 149 130 130 129 123 127 128 128 134 136 138 143 154 158 154 155 157 154 149 145 145 145 143 144 144 144 144 141 138 138 144 148 144 137 135 130 124 122 119 114 111 104 97 91 88 86 76 64 58 56 62 73 78 71 69 78 85 84 90 93 91 95 96 95 97 98 97 97 100 106 112 115 112 108 104 101 99 96 93
159 164 170 171 166 165 150 134 134 129 121 119 120 125 128 127 132 138 147 153 152 152 153 148 145 147 149 148 146 145 144 146 148 147 144 146 150 148 140 138 137 129 125 125 123 114 107 102 96 91 80 74 67 60 64 63 67 74 76 75 73 74 80 85 91 93 97 101 97 96 97 97 99 102 107 111 113 113 108 103 100 98 98 97 95
157 160 165 170 169 159 150 144 137 130 122 119 123 128 128 127 130 133 139 144 145 146 146 144 145 150 152 150 147 143 141 148 152 149 148 149 150 147 140 138 135 130 130 129 122 113 109 104 96 90 69 61 65 60 61 66 76 80 77 77 80 79 78 81 81 82 85 93 97 97 96 99 103 107 111 112 112 109 104 100 98 99 99 98 96
158 158 165 172 165 154 158 153 138 131 125 123 127 130 130 131 132 130 132 138 140 140 141 143 146 151 152 150 147 143 142 150 152 148 147 146 148 147 139 133 137 137 132 125 121 117 114 106 103 100 81 66 64 60 64 71 77 81 80 76 81 82 80 81 79 80 84 92 100 98 97 102 106 109 112 112 109 105 100 100 100 101 101 99 99
159 161 167 169 160 156 168 157 140 136 127 124 128 130 130 131 131 129 131 135 134 135 137 142 146 149 150 149 148 146 146 149 150 149 147 145 146 145 140 136 140 142 133 127 128 119 106 98 99 96 81 68 62 62 67 73 79 83 84 81 82 82 79 82 83 89 91 87 94 97 99 104 108 111 112 109 106 104 103 105 105 105 104 102 102
160 164 164 161 160 164 170 157 146 140 130 128 128 130 133 133 132 132 135 135 132 133 138 142 144 146 149 150 150 148 146 148 150 148 144 146 148 144 141 142 143 147 145 136 125 113 103 96 91 80 65 60 62 65 70 80 85 81 84 85 86 85 81 81 81 87 87 79 85 93 99 105 112 114 112 110 107 108 110 111 110 107 105 103 103
160 163 161 160 164 167 164 158 153 145 138 135 130 133 136 135 135 136 138 136 134 135 138 143 144 145 149 150 149 149 147 148 150 148 146 149 151 144 135 145 153 147 150 143 122 110 109 101 89 74 55 54 62 68 74 84 86 80 86 90 89 88 85 84 85 86 89 93 92 94 101 108 116 118 114 111 110 115 117 116 114 110 106 104 102
162 162 162 164 166 164 160 163 162 150 145 140 135 139 139 138 138 140 141 139 136 135 137 141 144 146 148 149 150 150 150 149 151 151 149 146 145 143 137 149 154 140 151 155 131 116 115 103 88 70 46 47 62 70 77 82 83 85 90 93 94 91 89 90 89 87 89 94 92 97 110 117 124 125 119 115 114 116 118 120 118 114 110 105 100
163 163 164 165 166 165 156 161 166 154 149 145 142 143 142 142 141 142 144 142 139 137 137 140 144 145 147 150 151 151 153 152 153 153 148 142 140 141 143 156 150 137 153 157 137 124 122 106 83 64 44 46 60 71 80 80 82 91 100 102 100 96 94 91 89 92 94 96 98 98 103 118 132 130 122 118 118 116 114 120 124 124 120 109 97
166 165 167 164 167 167 153 156 168 162 155 150 148 147 144 143 143 144 144 141 139 139 140 141 145 145 149 155 154 153 156 155 155 154 146 141 140 132 141 167 152 146 160 152 139 140 129 102 70 61 49 40 47 64 76 84 93 102 107 110 108 101 96 94 93 97 94 94 108 111 104 119 129 120 115 115 120 119 111 112 122 141 152 151 183
168 168 169 166 167 167 158 163 169 166 162 153 151 151 147 146 144 145 145 140 138 142 144 144 146 148 154 159 155 156 160 158 160 159 150 146 144 139 153 173 161 160 168 155 149 157 144 108 67 56 51 39 36 47 61 75 92 112 113 115 120 111 99 95 97 101 98 94 111 131 143 157 141 130 141 146 149 138 122 108 106 129 187 247 279
168 171 172 169 170 170 168 170 167 168 170 159 154 155 152 149 145 147 148 142 142 148 148 147 148 151 160 162 158 160 164 163 166 164 157 149 142 149 165 167 162 162 165 152 148 171 164 129 83 55 43 30 28 39 46 55 70 112 105 116 136 130 120 111 111 119 118 124 135 147 164 173 174 198 187 158 175 216 202 167 146 224 266 278 289
171 175 178 175 174 173 173 173 168 172 175 165 157 157 157 153 147 150 152 146 148 151 149 150 151 154 165 167 163 164 167 167 167 166 166 160 150 155 168 162 158 162 161 146 143 176 175 147 100 65 43 23 32 42 31 24 12 156 73 141 168 167 155 140 145 160 155 159 170 174 188 189 186 212 236 220 214 236 255 244 225 264 282 290 298
176 181 181 181 179 175 176 176 173 176 178 173 165 162 164 161 155 156 155 153 156 154 151 153 154 165 173 169 168 168 169 171 170 171 175 173 163 160 171 167 158 164 167 163 166 176 173 161 109 64 45 28 40 35 24 21 353 170 170 197 176 181 178 163 174 191 188 181 192 197 199 205 205 210 220 231 224 221 248 261 266 280 285 290 300
184 186 181 182 181 178 180 180 180 178 179 181 175 169 169 167 163 162 162 164 165 158 157 159 157 175 179 170 171 173 172 176 178 180 180 174 165 167 179 176 171 174 172 173 175 177 177 172 127 59 44 26 38 33 37 42 7 78 168 189 174 177 176 184 193 195 196 191 198 204 209 211 209 212 218 227 232 229 249 268 275 282 287 291 296
188 188 184 185 182 182 185 184 185 182 181 185 183 178 175 171 170 169 166 168 168 162 166 167 160 172 179 174 175 176 176 180 184 185 180 175 171 170 178 181 187 185 178 179 181 188 192 184 151 84 81 35 40 35 37 41 24 17 245 198 178 181 178 193 196 182 190 189 202 213 219 220 215 215 219 226 238 246 255 265 274 286 295 299 299
188 187 186 186 184 188 190 186 187 187 184 185 184 184 182 178 176 175 170 170 174 172 173 173 167 167 177 180 179 179 179 182 188 186 181 184 180 172 175 183 195 194 188 187 184 194 202 191 189 164 122 63 50 37 34 33 27 22 299 247 199 197 190 200 199 192 208 202 222 248 234 230 225 221 230 242 249 251 261 272 281 293 301 301 301
190 189 187 187 187 191 194 189 189 189 189 186 180 180 184 182 180 179 178 177 179 179 175 176 177 174 177 184 187 187 184 183 187 187 186 193 186 178 182 185 198 200 192 188 185 193 192 185 194 182 116 48 48 33 33 36 34 45 41 34 196 210 236 261 229 220 248 257 279 287 262 249 239 236 247 256 260 263 274 282 287 297 305 306 307
193 191 188 189 191 194 196 193 190 190 191 189 182 179 183 184 184 185 186 184 182 184 182 180 184 182 178 186 194 195 192 190 191 191 195 198 190 185 188 190 198 201 198 194 187 184 172 174 199 183 157 269 58 38 36 42 33 43 47 62 111 319 328 308 276 260 257 261 277 282 285 273 253 250 257 261 266 270 279 288 295 303 308 309 317
194 192 189 191 195 198 199 197 193 191 193 192 188 185 185 187 189 189 191 189 187 191 190 184 186 186 182 188 196 200 199 194 196 202 200 199 195 191 194 196 196 198 204 198 182 176 173 188 206 198 215 241 186 52 32 25 9 10 33 103 127 308 320 315 300 297 266 256 275 273 273 295 270 266 270 273 277 279 286 291 299 308 299 297 306
194 193 190 193 202 203 201 202 198 193 195 195 193 191 189 188 191 192 195 194 194 201 199 191 189 190 190 191 193 202 205 198 198 206 202 199 199 197 198 197 196 199 201 200 196 199 199 202 211 215 228 242 234 247 309 346 336 322 291 272 285 285 292 297 298 304 285 291 318 292 280 294 285 296 305 300 300 300 300 297 299 300 295 299 302
194 195 191 194 206 208 201 205 204 197 198 197 195 195 194 192 194 196 200 197 198 206 205 200 199 196 196 197 195 200 209 206 202 202 202 204 203 202 204 199 200 207 202 206 216 214 214 212 215 222 226 232 236 244 262 287 296 302 296 289 290 287 288 285 286 291 287 306 324 289 289 299 286 295 307 305 308 307 308 309 308 302 301 312 313
195 197 194 193 206 211 204 204 206 202 201 199 197 198 198 198 199 201 203 201 201 201 199 202 205 201 198 202 202 201 205 211 211 208 206 207 209 208 207 204 208 215 212 214 217 218 223 223 224 228 226 225 230 239 251 262 271 279 285 287 284 286 293 291 287 289 293 303 292 282 295 304 292 295 297 300 305 304 304 308 310 305 302 315 318
197 198 197 194 202 212 210 205 205 205 205 202 200 201 201 203 205 204 203 203 203 200 196 199 202 201 201 203 207 207 206 209 214 217 214 211 216 217 213 214 218 220 220 220 220 223 227 231 236 237 234 232 233 237 246 256 266 271 275 278 276 280 285 285 288 290 294 298 297 298 303 304 299 296 293 299 303 299 301 305 304 304 306 310 309